Location: Izdebno
(52.6670°N, 16.2170°E)
Time: 19:12:12
(UTC+01:00)

Tiros 1 - Visible Passes

Search period start: 30 January 2023 00:00
Search period end: 09 February 2023 00:00
Orbit: 628 x 662 km, 48.4° (Epoch: 30 January)

Date Brightness Start Highest point End Pass type
(mag) Time Alt. Az. Time Alt. Az. Time Alt. Az.
30 Jan 10.0 03:29:01 13° E 03:29:01 13° E 03:29:34 10° E visible
30 Jan 7.5 05:06:38 50° SSW 05:06:55 51° S 05:11:30 10° ESE visible
30 Jan 8.3 06:44:25 10° W 06:48:35 32° SSW 06:52:47 10° SE visible
31 Jan 9.4 03:53:17 21° ESE 03:53:17 21° ESE 03:54:56 10° E visible
31 Jan 7.7 05:30:54 35° SW 05:32:09 44° SSW 05:36:39 10° ESE visible
01 Feb 8.7 04:17:34 31° SE 04:17:34 31° SE 04:20:13 10° ESE visible
01 Feb 8.2 05:55:11 22° WSW 05:57:19 33° SSW 06:01:33 10° SE visible
02 Feb 8.1 04:41:53 39° SSE 04:41:53 39° SSE 04:45:23 10° ESE visible
02 Feb 8.7 06:19:30 13° WSW 06:22:22 22° SSW 06:26:01 10° SSE visible
03 Feb 10.0 03:28:36 12° ESE 03:28:36 12° ESE 03:28:55 10° ESE visible
03 Feb 8.0 05:06:13 34° SSW 05:06:13 34° SSW 05:10:19 10° SE visible
03 Feb 9.3 06:45:02 10° WSW 06:47:16 13° SW 06:49:30 10° S visible
04 Feb 9.6 03:52:59 17° ESE 03:52:59 17° ESE 03:54:05 10° ESE visible
04 Feb 8.5 05:30:37 23° SW 05:31:06 24° SSW 05:34:51 10° SSE visible
05 Feb 9.2 04:17:27 20° SE 04:17:27 20° SE 04:19:04 10° SE visible
05 Feb 9.0 05:55:05 14° SW 05:56:02 14° SW 05:58:31 10° S visible
06 Feb 9.1 04:41:58 18° S 04:41:58 18° S 04:43:39 10° SSE visible
07 Feb 9.3 05:06:35 13° SSW 05:06:35 13° SSW 05:07:29 10° S visible
